www.pogodaiklimat.ru
ПОГОДА в Джонстауне
Время
и дата
04:54 28.09
05:03 28.09
05:39 28.09
05:54 28.09
06:01 28.09
06:11 28.09
06:20 28.09
06:36 28.09
06:54 28.09
07:03 28.09
07:54 28.09
08:54 28.09
09:54 28.09
10:36 28.09
10:42 28.09
10:51 28.09
10:54 28.09
11:14 28.09
11:54 28.09
12:39 28.09
12:54 28.09
13:30 28.09
13:54 28.09
14:22 28.09
14:54 28.09
15:54 28.09
16:05 28.09
16:19 28.09
16:54 28.09
17:54 28.09
18:06 28.09
18:19 28.09
18:45 28.09
18:54 28.09
19:04 28.09
19:54 28.09
20:54 28.09
21:54 28.09
22:12 28.09
22:21 28.09
22:37 28.09
22:54 28.09
23:08 28.09
23:54 28.09
00:54 29.09
01:41 29.09
01:54 29.09
02:14 29.09
Ветер
(напр.,м/с)
Видим. Явления Облачность Т
(С)
Тd
(С)
f
(%)
Тe
(С)
Тes
(С)
Комфортность P
(гПа)
Po
(гПа)
Тmin
(С)
Tmax
(С)
R
(мм)
R24
(мм)
S
(см)
З 4 14 км 10/10 150 м +6.1 +5.6 97 +2 +2 1021.0 938.4
ЮЗ 5 13 км 10/10 120 м +6.1 +5.6 97 +2 +2 938.4
З 4 6 км дымка 10/10 60 м +6.1 +5.6 97 +2 +2 938.7
З 4 5 км дымка 10/10 60 м +6.1 +5.6 97 +2 +2 1021.7 939.0
З 3 3 км дымка 10/10 60 м +6.1 +6.1 100 +3 +3 939.0
ЮЗ 3 2 км дымка ?/? +6.1 +6.1 100 +3 +3 939.0
З 3 800 м туман ?/? +6.1 +6.1 100 +3 +3 939.4
З 4 400 м туман ?/? +6.7 +6.1 96 +3 +3 939.4
З 3 400 м туман ?/? +6.7 +6.1 96 +3 +3 1022.3 939.7 +5.6 +6.7 3.0
З 4 <100 м туман ?/? +6.7 +6.1 96 +3 +3 939.7
З 4 <100 м туман ?/? +6.7 +6.7 100 +3 +3 1022.8 940.0
З 5 400 м туман ?/? +7.2 +6.7 97 +3 +3 1023.6 940.9
З 4 400 м туман ?/? +7.8 +7.2 96 +4 +4 1024.6 941.9
СЗ 4 1 км дымка ?/? +8.3 +7.8 97 +5 +5 941.9
СЗ 4 3 км дымка 10/10 60 м +8.3 +7.8 97 +5 +5 941.9
СЗ 5 6 км дымка 10/10 60 м +8.0 +8.0 100 +4 +4 942.2
СЗ 5 6 км дымка 10/10 60 м +8.3 +7.8 97 +4 +4 1025.1 942.2
СЗ 4 16 км 10/10 90 м +8.9 +7.8 93 +6 +6 942.2
СЗ 4 14 км 10/10 120 м +8.9 +7.8 93 +6 +6 1025.5 942.5
З 4 16 км 10/10 180 м +9.4 +7.8 90 +6 +6 942.5
З 5 16 км 10/10 180 м +9.4 +7.8 90 +6 +6 1025.4 942.5 +6.7 +10.0
З 4 16 км 10/10 210 м +10.6 +7.8 83 +8 +8 942.5
З 4 16 км 10/10 390 м +10.6 +7.8 83 +8 +8 1025.4 942.5
З 3
{8}
16 км 10/10 450 м +11.1 +8.3 83 +9 +9 942.5
З 3 16 км 10/10 510 м +11.1 +8.3 83 +9 +9 1025.6 942.8
З 4 16 км 8/8 540 м +11.1 +7.8 80 +9 +10 1025.8 943.1
З 4 16 км 10/10 540 м +11.1 +8.3 83 +9 +9 943.1
З 4 16 км 10/10 480 м +11.7 +8.3 80 +10 +10 943.1
З 5 16 км 10/10 450 м +11.7 +8.3 80 +9 +9 1026.3 943.4
СЗ 3 14 км слабый дождь 10/10 570 m
[Ns]
+10.6 +8.3 86 +9 +9 1026.9 944.0
З 4 16 км слабый дождь 10/10 420 m
[Ns]
+10.6 +8.3 86 +8 +8 944.0
З 3 16 км 10/10 420 м +10.0 +8.3 89 +8 +8 944.3
З 3 16 км 8/8 330 м +9.4 +8.3 93 +7 +7 944.3
З 3 16 км 5/5 330 м +8.9 +7.8 93 +6 +6 1027.4 944.3 +8.9 +11.7 0.3
З 3 16 км 5/5 270 м +9.4 +8.3 93 +7 +7 944.3
З 3 16 км 10/10 1500 м +9.4 +8.3 93 +7 +7 1027.9 945.0
СЗ 4 16 км 2/2 750 м +8.9 +7.8 93 +6 +6 1028.2 945.3
СЗ 3 16 км 5/5 210 м +8.3 +7.8 97 +5 +5 1028.9 945.6
СЗ 3 16 км 8/8 180 м +9.4 +8.3 93 +7 +7 945.9
СЗ 4 16 км 8/8 180 м +9.4 +8.9 97 +6 +6 945.9
СЗ 4 16 км 10/10 180 м +8.9 +8.3 96 +6 +6 945.9
СЗ 4 16 км 8/8 240 м +8.9 +7.8 93 +6 +6 1029.2 946.2
С 3 16 км 8/8 240 м +8.9 +8.3 96 +6 +6 946.2
С 4 16 км 10/10 210 м +9.4 +8.3 93 +6 +6 1029.2 946.2
С 4 16 км 10/10 120 м +8.9 +7.8 93 +6 +6 1029.3 946.5 +8.3 +9.4
С 3 16 км 10/10 180 м +8.9 +7.8 93 +6 +6 946.5
С 3 16 км 8/8 210 м +8.3 +7.2 93 +6 +6 1029.3 946.5
СВ 3 16 км 5/5 210 м +7.8 +6.7 93 +5 +5 946.2
Местоположение метеостанции Johnstown-Cambria County Airport: широта 40.3161 долгота -78.8339 высота над уровнем моря 696 м.
В архиве по умолчанию представлена погода в Джонстауне за последние 1-2 суток. Обновление информации о фактической погоде в базе происходит ежечасно! Архивные данные за месяц целиком и за предыдущие месяцы Вы можете получить, выбрав интересующий диапазон дат из раскрывающегося списка и нажав кнопку "Ввод!".
Внимание! Архив погоды МЕТАР в базе сайта по станциям, не включенным в климатический монитор, хранится не более 60 дней. Нет смысла пытаться выбрать более раннюю дату.
*Определитесь, кто Вы:
Внимание! Время в таблицах - местное (без учета летнего времени). Для получения всемирного времени необходимо вычесть поправку, которая равна -5 ч.
Смотрите также архив погоды в соседних городах и на ближайших метеорологических станциях:
Партнеры нашего сайта:      
Пояснения к столбцам:
  • Ветер - указаны скорость ветра в м/с - средняя за 10 мин, порывы в срок и между сроками (в фигурных скобках) и направление, откуда дует ветер: С - северный,
  • СВ - северо-восточный, В - восточный, ЮВ - юго-восточный, Ю - южный, ЮЗ - юго-западный, З - западный, СЗ - северо-западный.
  • Видимость - горизонтальная дальность видимости в метрах или километрах. При видимости от 1 до 10 км при отсутствии осадков обычно наблюдается дымка, при ухудшении видимости до 1 км и менее - туман. В сухую погоду видимость может ухудшаться дымом, пылью или мглою.
  • Явления - указаны атмосферные явления, наблюдавшиеся в срок или в последний час перед сроком; фигурными скобками обозначены явления, наблюдавшиеся между сроками (за 1-3 часа до срока); квадратными скобками обозначены град или гололедные отложения с указанием их диаметра в мм.
  • Облачность - указаны через наклонную черту общая и нижняя облачность в баллах и высота нижней границы облаков в метрах; квадратными скобками обозначены формы облаков: Ci - перистые, Cs - перисто-слоистые, Cc - перисто-кучевые, Ac - высококучевые, As - высокослоистые, Sc - слоисто-кучевые, Ns - слоисто-дождевые, Cu - кучевые, Cb - кучево-дождевые. Подробнее классификацию облаков см. в Атласе облаков (PDF).
  • T - Температура воздуха - температура, измеренная на высоте 2 м над землей.
  • Td - Температура точки росы - температура, при понижении до которой содержащийся в воздухе водяной пар достигнет насыщения.
  • f - Относительная влажность воздуха - влажноcть воздуха, измеренная на высоте 2 м над землей.
  • Te - Эффективная температура - температура, которую ощущает одетый по сезону человек в тени. Характеристика душности погоды. При расчете учитывается влияние влажности воздуха и скорости ветра на теплоощущения человека.
  • Tes - Эффективная температура на солнце - температура, которую ощущает человек, с поправкой на солнечный нагрев. Характеристика знойности погоды. Зависит от высоты солнца над горизонтом, облачности и скорости ветра. Ночью, в пасмурную погоду, а также при ветре 12 м/с и более поправка равна нулю.
  • P - Атмосферное давление - приведенное к уровню моря атмосферное давление.
  • Po - Атмосферное давление - измеренное на уровне метеостанции атмосферное давление.
  • Tmin - Минимальная температура - минимум температуры воздуха на высоте 2 м над землей.
  • Tmax - Максимальная температура - максимум температуры воздуха на высоте 2 м над землей.
  • R - Количество осадков - Количество выпавших осадков за период времени, мм. При наведении курсора мыши на число - период времени, за который выпало указанное количество осадков.
  • R24 - Количество осадков - Количество выпавших осадков за 24 часа, мм.
  • S - Снежный покров - Высота снежного покрова, см. При наведении курсора мыши на число - состояние снежного покрова и степень покрытия местности в баллах.